Home > Time Zones > World Clock > Weather > U.S.A. > Nome > Past weeks

Flag for U.S.A. Weather past 2 weeks in Nome, Alaska, U.S.A.

Now
55 °F

Partly sunny.


Feels Like: 54 °F
Forecast: 47 / 53 °F
Wind: 5 mph from South

Location: Nome Airport

Current Time: Sep 15, 2014 at 8:07:56 PM

Latest Report: Sep 15, 2014 at 6:53 PM


Visibility: 10 mi

Pressure: 29.50 "Hg

Humidity: 83%

Dew point: 50 °F

Location of NomeLocation

Historic Weather in Nome — Graph

°F

Nome temperature yesterday

Maximum temperature yesterday: 59 °F (at 1:53 PM)
Minimum temperature yesterday: 50 °F (at 2:53 AM)
Average temperature yesterday: 54 °F

Past Weeks' High & Low Weather Summary

 TemperatureHumidityPressure
High64 °F (Sep 12, 3:53 PM)100% (Aug 31, 9:53 PM)30.18 "Hg (Aug 31, 9:53 PM)
Low31 °F (Sep 3, 7:53 AM)27% (Sep 5, 4:53 PM)29.29 "Hg (Sep 12, 10:53 PM)
Average49 °F76%29.81 "Hg
* Reported Aug 31 6:53 PM — Sep 15 6:53 PM, Nome, Weather by CustomWeather, © 2014

Note: Actual official high and low records may vary slightly from our data, if they occured in-between our weather recording intervals... More about our weather records

Advertising

Nome weather history for previous 24 hours

 ConditionsComfort  
Time TempWeatherWind HumidityBarometerVisibility
6:53 PM
Sep 15
55 °FPartly sunny.5 mph83%29.50 "Hg10 mi
5:53 PM55 °FScattered clouds.5 mph87%29.50 "Hg10 mi
4:53 PM55 °FPartly sunny.6 mph83%29.49 "Hg10 mi
3:53 PM55 °FMostly cloudy.9 mph83%29.49 "Hg10 mi
2:53 PM54 °FOvercast.10 mph86%29.50 "Hg10 mi
1:53 PM59 °FPartly sunny.N/A64%29.50 "Hg10 mi
12:53 PM58 °FOvercast.N/A65%29.49 "Hg10 mi
11:53 AM55 °FMostly cloudy.9 mph74%29.49 "Hg10 mi
10:53 AM52 °FPartly sunny.8 mph83%29.50 "Hg10 mi
9:53 AM51 °FMostly cloudy.6 mph83%29.50 "Hg10 mi
8:53 AM50 °FOvercast.7 mph86%29.50 "Hg10 mi
7:53 AM51 °FLight rain. Passing clouds.6 mph86%29.51 "Hg10 mi
6:53 AM50 °FOvercast.5 mph86%29.50 "Hg10 mi
5:53 AM49 °FOvercast.7 mph93%29.51 "Hg10 mi
4:53 AM50 °FPartly cloudy.5 mph86%29.51 "Hg10 mi
3:53 AM51 °FPartly cloudy.8 mph86%29.51 "Hg10 mi
2:53 AM51 °FClear.7 mph83%29.50 "Hg10 mi
1:53 AM50 °FPartly cloudy.13 mph83%29.49 "Hg10 mi
12:53 AM50 °FMostly cloudy.8 mph89%29.49 "Hg10 mi
11:53 PM
Sep 14
52 °FRain. Overcast.12 mph83%29.49 "Hg4 mi
10:53 PM53 °FLight rain. Overcast.13 mph80%29.48 "Hg10 mi
9:53 PM53 °FPartly sunny.8 mph69%29.48 "Hg10 mi
8:53 PM54 °FOvercast.7 mph72%29.49 "Hg10 mi
Weather by CustomWeather, © 2014

See weather overviewHow to use our weather pages